| time (UTC) | temp C | wind direction | speed KPH | gust KPH | rain 1hr cm | rain 24hr cm | rain mn cm | humidity % | barometer mb |
| 20260905235003 | 35 | 109 | 1.6 | 3.2 | 0.00 | 0.00 | 0.00 | 44 | 994.7 |
| 20260905234503 | 35 | 114 | 1.6 | 8.0 | 0.00 | 0.00 | 0.00 | 43 | 994.6 |
| 20260905234003 | 36 | 116 | 1.6 | 8.0 | 0.00 | 0.00 | 0.00 | 43 | 994.6 |
| 20260905233503 | 36 | 128 | 3.2 | 9.7 | 0.00 | 0.00 | 0.00 | 43 | 994.5 |
| 20260905233003 | 36 | 130 | 4.8 | 9.7 | 0.00 | 0.00 | 0.00 | 43 | 994.5 |
| 20260905232503 | 36 | 162 | 3.2 | 4.8 | 0.00 | 0.00 | 0.00 | 42 | 994.6 |
| 20260905232003 | 36 | 187 | 4.8 | 8.0 | 0.00 | 0.00 | 0.00 | 42 | 994.7 |
| 20260905231502 | 36 | 199 | 4.8 | 11.3 | 0.00 | 0.00 | 0.00 | 41 | 994.8 |
| 20260905231003 | 36 | 180 | 8.0 | 11.3 | 0.00 | 0.00 | 0.00 | 41 | 994.9 |
| 20260905230502 | 36 | 173 | 1.6 | 4.8 | 0.00 | 0.00 | 0.00 | 40 | 994.6 |
| 20260905225503 | 36 | 71 | 1.6 | 8.0 | 0.00 | 0.00 | 0.00 | 40 | 994.8 |
| 20260905224503 | 36 | 115 | 1.6 | 4.8 | 0.00 | 0.00 | 0.00 | 39 | 994.7 |
| 20260905223503 | 37 | 142 | 3.2 | 8.0 | 0.00 | 0.00 | 0.00 | 39 | 994.7 |
| 20260905223003 | 37 | 99 | 3.2 | 9.7 | 0.00 | 0.00 | 0.00 | 40 | 994.5 |
| 20260905222502 | 37 | 193 | 3.2 | 4.8 | 0.00 | 0.00 | 0.00 | 39 | 994.7 |
| 20260905222003 | 37 | 124 | 3.2 | 4.8 | 0.00 | 0.00 | 0.00 | 39 | 994.9 |
| 20260905221504 | 36 | 201 | 1.6 | 4.8 | 0.00 | 0.00 | 0.00 | 40 | 994.9 |
| 20260905221002 | 36 | 196 | 3.2 | 8.0 | 0.00 | 0.00 | 0.00 | 39 | 994.8 |
| 20260905220503 | 36 | 75 | 4.8 | 4.8 | 0.00 | 0.00 | 0.00 | 39 | 994.7 |
| 20260905215502 | 36 | 207 | 8.0 | 9.7 | 0.00 | 0.00 | 0.00 | 38 | 994.8 |
| 20260905214503 | 36 | 83 | 1.6 | 4.8 | 0.00 | 0.00 | 0.00 | 39 | 994.9 |
| 20260905214003 | 36 | 130 | 3.2 | 11.3 | 0.00 | 0.00 | 0.00 | 41 | 995.0 |
| 20260905213502 | 36 | 182 | 3.2 | 8.0 | 0.00 | 0.00 | 0.00 | 41 | 995.1 |
| 20260905213003 | 36 | 165 | 1.6 | 4.8 | 0.00 | 0.00 | 0.00 | 40 | 994.9 |
| 20260905212503 | 36 | 82 | 1.6 | 4.8 | 0.00 | 0.00 | 0.00 | 42 | 995.2 |
| 20260905212002 | 35 | 98 | 1.6 | 3.2 | 0.00 | 0.00 | 0.00 | 43 | 995.1 |
| 20260905211003 | 35 | 127 | 3.2 | 9.7 | 0.00 | 0.00 | 0.00 | 44 | 995.4 |
| 20260905210503 | 35 | 140 | 4.8 | 11.3 | 0.00 | 0.00 | 0.00 | 44 | 995.3 |
| 20260905210003 | 35 | 198 | 4.8 | 11.3 | 0.00 | 0.00 | 0.00 | 43 | 995.3 |
| 20260905205502 | 35 | 177 | 4.8 | 12.9 | 0.00 | 0.00 | 0.00 | 43 | 995.5 |
| 20260905205003 | 36 | 161 | 4.8 | 8.0 | 0.00 | 0.00 | 0.00 | 42 | 995.6 |
| 20260905204503 | 36 | 131 | 0.0 | 9.7 | 0.00 | 0.00 | 0.00 | 41 | 995.6 |
| 20260905204003 | 37 | 76 | 4.8 | 9.7 | 0.00 | 0.00 | 0.00 | 41 | 995.7 |
| 20260905203003 | 36 | 137 | 1.6 | 4.8 | 0.00 | 0.00 | 0.00 | 42 | 995.7 |
| 20260905202503 | 37 | 128 | 1.6 | 3.2 | 0.00 | 0.00 | 0.00 | 41 | 995.8 |
| 20260905202003 | 36 | 115 | 1.6 | 8.0 | 0.00 | 0.00 | 0.00 | 41 | 995.9 |
| 20260905201503 | 37 | 167 | 3.2 | 4.8 | 0.00 | 0.00 | 0.00 | 41 | 996.0 |
| 20260905200503 | 36 | 167 | 3.2 | 9.7 | 0.00 | 0.00 | 0.00 | 43 | 996.0 |
| 20260905200002 | 36 | 157 | 3.2 | 9.7 | 0.00 | 0.00 | 0.00 | 43 | 996.3 |
| 20260905195003 | 36 | 134 | 3.2 | 4.8 | 0.00 | 0.00 | 0.00 | 44 | 996.6 |
| 20260905194503 | 36 | 62 | 3.2 | 4.8 | 0.00 | 0.00 | 0.00 | 45 | 996.4 |
| 20260905194003 | 35 | 140 | 3.2 | 9.7 | 0.00 | 0.00 | 0.00 | 45 | 996.6 |
| 20260905193503 | 36 | 190 | 8.0 | 9.7 | 0.00 | 0.00 | 0.00 | 43 | 996.6 |
| 20260905193003 | 36 | 170 | 4.8 | 9.7 | 0.00 | 0.00 | 0.00 | 43 | 996.7 |
| 20260905192002 | 36 | 116 | 3.2 | 3.2 | 0.00 | 0.00 | 0.00 | 44 | 996.9 |
| 20260905191503 | 35 | 71 | 1.6 | 3.2 | 0.00 | 0.00 | 0.00 | 47 | 997.0 |
| 20260905191003 | 34 | 85 | 3.2 | 8.0 | 0.00 | 0.00 | 0.00 | 49 | 997.1 |
| 20260905190002 | 35 | 156 | 3.2 | 8.0 | 0.00 | 0.00 | 0.00 | 47 | 997.3 |
| 20260905185503 | 35 | 201 | 3.2 | 4.8 | 0.00 | 0.00 | 0.00 | 44 | 997.3 |
| 20260905185003 | 34 | 118 | 3.2 | 12.9 | 0.00 | 0.00 | 0.00 | 46 | 997.4 |
| 20260905184503 | 34 | 192 | 4.8 | 11.3 | 0.00 | 0.00 | 0.00 | 49 | 997.5 |
| 20260905183503 | 35 | 290 | 9.7 | 11.3 | 0.00 | 0.00 | 0.00 | 48 | 997.6 |
| 20260905183003 | 35 | 243 | 3.2 | 12.9 | 0.00 | 0.00 | 0.00 | 48 | 997.7 |
| 20260905182503 | 35 | 184 | 1.6 | 9.7 | 0.00 | 0.00 | 0.00 | 46 | 997.9 |
| 20260905182003 | 35 | 176 | 4.8 | 12.9 | 0.00 | 0.00 | 0.00 | 47 | 997.9 |
| 20260905181503 | 35 | 185 | 9.7 | 12.9 | 0.00 | 0.00 | 0.00 | 48 | 997.9 |
| 20260905181003 | 35 | 180 | 4.8 | 9.7 | 0.00 | 0.00 | 0.00 | 47 | 998.1 |
| 20260905180503 | 35 | 130 | 3.2 | 12.9 | 0.00 | 0.00 | 0.00 | 47 | 998.2 |
| 20260905180003 | 34 | 165 | 4.8 | 12.9 | 0.00 | 0.00 | 0.00 | 48 | 998.4 |
| 20260905175503 | 33 | 108 | 0.0 | 8.0 | 0.00 | 0.00 | 0.00 | 51 | 998.6 |
| 20260905175002 | 34 | 254 | 3.2 | 9.7 | 0.00 | 0.00 | 0.00 | 48 | 998.6 |
| 20260905174503 | 34 | 209 | 6.4 | 12.9 | 0.00 | 0.00 | 0.00 | 50 | 998.5 |
| 20260905173503 | 34 | 162 | 1.6 | 3.2 | 0.00 | 0.00 | 0.00 | 52 | 998.8 |
| 20260905173003 | 35 | 156 | 3.2 | 8.0 | 0.00 | 0.00 | 0.00 | 50 | 998.8 |
| 20260905172003 | 34 | 177 | 8.0 | 12.9 | 0.00 | 0.00 | 0.00 | 49 | 998.7 |
| 20260905171504 | 33 | 201 | 9.7 | 12.9 | 0.00 | 0.00 | 0.00 | 47 | 998.8 |
| 20260905171002 | 33 | 114 | 1.6 | 3.2 | 0.00 | 0.00 | 0.00 | 51 | 998.7 |
| 20260905170503 | 33 | 156 | 4.8 | 9.7 | 0.00 | 0.00 | 0.00 | 56 | 998.8 |
| 20260905164503 | 32 | 139 | 3.2 | 9.7 | 0.00 | 0.00 | 0.00 | 61 | 999.1 |
| 20260905164003 | 32 | 215 | 4.8 | 8.0 | 0.00 | 0.00 | 0.00 | 61 | 999.1 |
| 20260905163502 | 32 | 176 | 4.8 | 8.0 | 0.00 | 0.00 | 0.00 | 59 | 999.0 |
| 20260905163003 | 32 | 309 | 4.8 | 12.9 | 0.00 | 0.00 | 0.00 | 59 | 999.2 |
| 20260905162503 | 31 | 182 | 4.8 | 11.3 | 0.00 | 0.00 | 0.00 | 61 | 999.1 |
| 20260905162003 | 32 | 175 | 8.0 | 11.3 | 0.00 | 0.00 | 0.00 | 62 | 998.9 |
| 20260905161503 | 32 | 272 | 3.2 | 4.8 | 0.00 | 0.00 | 0.00 | 60 | 999.0 |
| 20260905161003 | 31 | 198 | 6.4 | 14.5 | 0.00 | 0.00 | 0.00 | 59 | 999.1 |
| 20260905160503 | 31 | 253 | 4.8 | 14.5 | 0.00 | 0.00 | 0.00 | 61 | 999.1 |
| 20260905160003 | 32 | 153 | 4.8 | 12.9 | 0.00 | 0.00 | 0.00 | 61 | 998.9 |
| 20260905155502 | 31 | 181 | 3.2 | 9.7 | 0.00 | 0.00 | 0.00 | 63 | 998.8 |
| 20260905155003 | 31 | 273 | 4.8 | 9.7 | 0.00 | 0.00 | 0.00 | 66 | 998.8 |
| 20260905154502 | 31 | 172 | 6.4 | 12.9 | 0.00 | 0.00 | 0.00 | 65 | 998.9 |
| 20260905154002 | 31 | 238 | 4.8 | 12.9 | 0.00 | 0.00 | 0.00 | 66 | 998.8 |
| 20260905153503 | 31 | 173 | 8.0 | 12.9 | 0.00 | 0.00 | 0.00 | 67 | 999.0 |
| 20260905153003 | 31 | 150 | 4.8 | 9.7 | 0.00 | 0.00 | 0.00 | 67 | 999.0 |
| 20260905152503 | 30 | 114 | 1.6 | 8.0 | 0.00 | 0.00 | 0.00 | 70 | 999.0 |
| 20260905152003 | 30 | 100 | 1.6 | 9.7 | 0.00 | 0.00 | 0.00 | 71 | 998.8 |
| 20260905151503 | 30 | 256 | 8.0 | 9.7 | 0.00 | 0.00 | 0.00 | 72 | 998.9 |
| 20260905151002 | 30 | 241 | 4.8 | 9.7 | 0.00 | 0.00 | 0.00 | 72 | 998.9 |
| 20260905150503 | 29 | 220 | 4.8 | 9.7 | 0.00 | 0.00 | 0.00 | 74 | 999.0 |
| 20260905150003 | 29 | 253 | 3.2 | 11.3 | 0.00 | 0.00 | 0.00 | 74 | 999.1 |
| 20260905145502 | 29 | 132 | 1.6 | 8.0 | 0.00 | 0.00 | 0.00 | 76 | 998.9 |
| 20260905145003 | 29 | 274 | 3.2 | 9.7 | 0.00 | 0.00 | 0.00 | 76 | 999.0 |
| 20260905144503 | 29 | 165 | 4.8 | 11.3 | 0.00 | 0.00 | 0.00 | 77 | 999.0 |
| 20260905144003 | 28 | 256 | 6.4 | 11.3 | 0.00 | 0.00 | 0.00 | 79 | 999.0 |
| 20260905143503 | 28 | 228 | 3.2 | 8.0 | 0.00 | 0.00 | 0.00 | 81 | 998.8 |
| 20260905143003 | 28 | 254 | 4.8 | 8.0 | 0.00 | 0.00 | 0.00 | 82 | 998.9 |
| 20260905142003 | 27 | 98 | 1.6 | 4.8 | 0.00 | 0.00 | 0.00 | 85 | 998.9 |
| 20260905141003 | 27 | 165 | 4.8 | 8.0 | 0.00 | 0.00 | 0.00 | 87 | 998.9 |
| 20260905140503 | 27 | 166 | 4.8 | 9.7 | 0.00 | 0.00 | 0.00 | 88 | 998.8 |
| 20260905140002 | 27 | 203 | 4.8 | 8.0 | 0.00 | 0.00 | 0.00 | 89 | 998.8 |
| 20260905134503 | 26 | 139 | 4.8 | 9.7 | 0.00 | 0.00 | 0.00 | 92 | 998.6 |
| 20260905134003 | 26 | 177 | 3.2 | 4.8 | 0.00 | 0.00 | 0.00 | 93 | 998.6 |
| 20260905133502 | 25 | 150 | 1.6 | 4.8 | 0.00 | 0.00 | 0.00 | 95 | 998.6 |
| 20260905133003 | 26 | 213 | 1.6 | 3.2 | 0.00 | 0.00 | 0.00 | 95 | 998.5 |
| 20260905132003 | 25 | 169 | 1.6 | 3.2 | 0.00 | 0.00 | 0.00 | 96 | 998.4 |
| 20260905131503 | 25 | 188 | 1.6 | 3.2 | 0.00 | 0.00 | 0.00 | 97 | 998.4 |
| 20260905130003 | 24 | 164 | 1.6 | 3.2 | 0.00 | 0.00 | 0.00 | 97 | 998.2 |
| 20260905125504 | 24 | 159 | 1.6 | 1.6 | 0.00 | 0.03 | 0.00 | 97 | 998.1 |
| 20260905125003 | 24 | 147 | 1.6 | 3.2 | 0.00 | 0.03 | 0.00 | 97 | 998.1 |
| 20260905124503 | 24 | 155 | 1.6 | 3.2 | 0.00 | 0.03 | 0.00 | 97 | 998.2 |
| 20260905124003 | 24 | 156 | 3.2 | 3.2 | 0.00 | 0.03 | 0.00 | 97 | 997.9 |
| 20260905123003 | 23 | 154 | 1.6 | 3.2 | 0.00 | 0.03 | 0.00 | 97 | 997.9 |
| 20260905122503 | 23 | 160 | 1.6 | 3.2 | 0.00 | 0.03 | 0.00 | 97 | 998.0 |
| 20260905121503 | 23 | 154 | 3.2 | 3.2 | 0.00 | 0.03 | 0.00 | 97 | 997.8 |
| 20260905121003 | 24 | 149 | 1.6 | 1.6 | 0.00 | 0.03 | 0.00 | 97 | 997.7 |
| 20260905120503 | 24 | 149 | 1.6 | 3.2 | 0.00 | 0.03 | 0.00 | 97 | 997.5 |
| 20260905120003 | 24 | 149 | 1.6 | 1.6 | 0.00 | 0.03 | 0.00 | 97 | 997.6 |
| 20260905115503 | 24 | 143 | 1.6 | 1.6 | 0.00 | 0.03 | 0.00 | 97 | 997.6 |
| 20260905115003 | 24 | 152 | 1.6 | 3.2 | 0.00 | 0.03 | 0.00 | 97 | 997.5 |
| 20260905114503 | 24 | 156 | 1.6 | 3.2 | 0.00 | 0.03 | 0.00 | 97 | 997.6 |
| 20260905114003 | 24 | 140 | 0.0 | 1.6 | 0.00 | 0.03 | 0.00 | 96 | 997.5 |
| 20260905113504 | 24 | 146 | 1.6 | 3.2 | 0.00 | 0.03 | 0.00 | 96 | 997.4 |
| 20260905113004 | 24 | 160 | 1.6 | 3.2 | 0.00 | 0.03 | 0.00 | 96 | 997.5 |
| 20260905112503 | 24 | 155 | 3.2 | 3.2 | 0.00 | 0.03 | 0.00 | 96 | 997.5 |
| 20260905112003 | 24 | 161 | 1.6 | 3.2 | 0.00 | 0.03 | 0.00 | 96 | 997.4 |
| 20260905111503 | 24 | 165 | 1.6 | 3.2 | 0.00 | 0.03 | 0.00 | 96 | 997.3 |
| 20260905111003 | 24 | 158 | 1.6 | 1.6 | 0.00 | 0.03 | 0.00 | 96 | 997.2 |
| 20260905110503 | 24 | 139 | 0.0 | 1.6 | 0.00 | 0.03 | 0.00 | 96 | 997.2 |
| 20260905105503 | 24 | 135 | 0.0 | 1.6 | 0.00 | 0.03 | 0.00 | 95 | 997.1 |
| 20260905105003 | 24 | 134 | 0.0 | 1.6 | 0.00 | 0.03 | 0.00 | 95 | 997.3 |
| 20260905104003 | 24 | 145 | 1.6 | 1.6 | 0.00 | 0.03 | 0.00 | 95 | 997.1 |
| 20260905103003 | 24 | 151 | 1.6 | 1.6 | 0.00 | 0.03 | 0.00 | 95 | 997.2 |
| 20260905102503 | 24 | 146 | 0.0 | 1.6 | 0.00 | 0.03 | 0.00 | 95 | 997.3 |
| 20260905102003 | 25 | 146 | 0.0 | 1.6 | 0.00 | 0.03 | 0.00 | 94 | 997.3 |
| 20260905101503 | 24 | 146 | 0.0 | 1.6 | 0.00 | 0.03 | 0.00 | 94 | 997.2 |
| 20260905101003 | 25 | 142 | 1.6 | 3.2 | 0.00 | 0.03 | 0.00 | 94 | 997.4 |
| 20260905100502 | 25 | 144 | 0.0 | 1.6 | 0.00 | 0.03 | 0.00 | 94 | 997.4 |
| 20260905100003 | 25 | 149 | 1.6 | 1.6 | 0.00 | 0.03 | 0.00 | 94 | 997.3 |
| 20260905095503 | 25 | 146 | 0.0 | 3.2 | 0.00 | 0.03 | 0.00 | 94 | 997.3 |
| 20260905095003 | 25 | 157 | 1.6 | 3.2 | 0.00 | 0.03 | 0.00 | 94 | 997.3 |
| 20260905094503 | 25 | 145 | 1.6 | 3.2 | 0.00 | 0.03 | 0.00 | 93 | 997.3 |
| 20260905093503 | 25 | 160 | 1.6 | 3.2 | 0.00 | 0.03 | 0.00 | 93 | 997.2 |
| 20260905093004 | 25 | 158 | 1.6 | 3.2 | 0.00 | 0.03 | 0.00 | 93 | 997.3 |
| 20260905092003 | 25 | 171 | 1.6 | 3.2 | 0.00 | 0.03 | 0.00 | 92 | 997.1 |
| 20260905091504 | 25 | 175 | 1.6 | 4.8 | 0.00 | 0.03 | 0.00 | 92 | 997.2 |
| 20260905091003 | 25 | 203 | 1.6 | 4.8 | 0.00 | 0.03 | 0.00 | 92 | 997.2 |
| 20260905090003 | 25 | 148 | 1.6 | 11.3 | 0.00 | 0.03 | 0.00 | 91 | 997.2 |
| 20260905085503 | 25 | 157 | 1.6 | 4.8 | 0.00 | 0.03 | 0.00 | 91 | 997.3 |
| 20260905085003 | 25 | 213 | 3.2 | 4.8 | 0.00 | 0.03 | 0.00 | 91 | 997.1 |
| 20260905084503 | 25 | 158 | 1.6 | 4.8 | 0.00 | 0.03 | 0.00 | 91 | 997.1 |
| 20260905084003 | 25 | 169 | 3.2 | 9.7 | 0.00 | 0.03 | 0.00 | 91 | 997.5 |
| 20260905083502 | 25 | 170 | 4.8 | 9.7 | 0.00 | 0.03 | 0.00 | 90 | 997.3 |
| 20260905083003 | 25 | 175 | 3.2 | 4.8 | 0.00 | 0.03 | 0.00 | 90 | 997.4 |
| 20260905082003 | 25 | 197 | 3.2 | 9.7 | 0.00 | 0.03 | 0.00 | 90 | 997.3 |
| 20260905080503 | 26 | 163 | 6.4 | 11.3 | 0.00 | 0.03 | 0.00 | 90 | 997.3 |
| 20260905080003 | 26 | 174 | 4.8 | 11.3 | 0.00 | 0.03 | 0.00 | 89 | 997.4 |
| 20260905075503 | 26 | 214 | 4.8 | 9.7 | 0.00 | 0.03 | 0.00 | 89 | 997.4 |
| 20260905075003 | 26 | 173 | 6.4 | 9.7 | 0.00 | 0.03 | 0.00 | 89 | 997.5 |
| 20260905074503 | 26 | 240 | 4.8 | 8.0 | 0.00 | 0.03 | 0.00 | 89 | 997.7 |
| 20260905074003 | 26 | 174 | 3.2 | 11.3 | 0.00 | 0.03 | 0.00 | 88 | 997.4 |
| 20260905073503 | 26 | 199 | 4.8 | 11.3 | 0.00 | 0.03 | 0.00 | 88 | 997.7 |
| 20260905073003 | 26 | 239 | 4.8 | 9.7 | 0.00 | 0.03 | 0.00 | 88 | 997.5 |
| 20260905072503 | 26 | 170 | 4.8 | 9.7 | 0.00 | 0.03 | 0.00 | 87 | 997.8 |
| 20260905072003 | 26 | 133 | 3.2 | 4.8 | 0.00 | 0.03 | 0.00 | 87 | 997.6 |
| 20260905071504 | 26 | 161 | 4.8 | 9.7 | 0.00 | 0.03 | 0.00 | 87 | 997.4 |
| 20260905071003 | 26 | 195 | 4.8 | 4.8 | 0.00 | 0.03 | 0.00 | 86 | 997.8 |
| 20260905070503 | 26 | 206 | 8.0 | 14.5 | 0.00 | 0.03 | 0.00 | 86 | 997.6 |
| 20260905065502 | 26 | 183 | 4.8 | 8.0 | 0.00 | 0.03 | 0.00 | 85 | 997.8 |
| 20260905065003 | 26 | 190 | 4.8 | 8.0 | 0.00 | 0.03 | 0.00 | 85 | 997.8 |
| 20260905064503 | 26 | 177 | 6.4 | 11.3 | 0.00 | 0.03 | 0.00 | 84 | 997.9 |
| 20260905064003 | 26 | 169 | 8.0 | 11.3 | 0.00 | 0.03 | 0.00 | 84 | 997.9 |
| 20260905063503 | 26 | 181 | 8.0 | 11.3 | 0.00 | 0.03 | 0.00 | 83 | 997.8 |
| 20260905063003 | 26 | 177 | 4.8 | 11.3 | 0.00 | 0.03 | 0.00 | 83 | 997.7 |
| 20260905062503 | 26 | 193 | 6.4 | 9.7 | 0.00 | 0.03 | 0.00 | 83 | 997.8 |
| 20260905062003 | 26 | 148 | 4.8 | 12.9 | 0.00 | 0.03 | 0.00 | 82 | 998.0 |
| 20260905061503 | 26 | 214 | 11.3 | 12.9 | 0.00 | 0.03 | 0.00 | 82 | 997.7 |
| 20260905061003 | 26 | 178 | 4.8 | 9.7 | 0.00 | 0.03 | 0.00 | 81 | 997.9 |
| 20260905060003 | 26 | 138 | 4.8 | 9.7 | 0.00 | 0.03 | 0.00 | 80 | 997.9 |
| 20260905055003 | 26 | 193 | 6.4 | 11.3 | 0.00 | 0.03 | 0.00 | 80 | 997.9 |
| 20260905054503 | 26 | 167 | 8.0 | 11.3 | 0.00 | 0.03 | 0.00 | 79 | 998.1 |
| 20260905054003 | 26 | 136 | 3.2 | 14.5 | 0.00 | 0.03 | 0.00 | 79 | 998.1 |
| 20260905053503 | 27 | 183 | 4.8 | 9.7 | 0.00 | 0.03 | 0.00 | 79 | 997.8 |
| 20260905053003 | 27 | 201 | 8.0 | 16.1 | 0.00 | 0.03 | 0.00 | 78 | 997.8 |
| 20260905052503 | 27 | 187 | 4.8 | 12.9 | 0.00 | 0.03 | 0.00 | 78 | 998.0 |
| 20260905052003 | 27 | 219 | 8.0 | 12.9 | 0.00 | 0.03 | 0.00 | 78 | 998.1 |
| 20260905051003 | 27 | 178 | 9.7 | 14.5 | 0.00 | 0.03 | 0.00 | 77 | 998.0 |
| 20260905050503 | 27 | 206 | 6.4 | 9.7 | 0.00 | 0.03 | 0.00 | 77 | 997.8 |
| 20260905050003 | 27 | 175 | 3.2 | 8.0 | 0.00 | 0.03 | 0.00 | 77 | 998.1 |
| 20260905045503 | 27 | 182 | 4.8 | 9.7 | 0.00 | 0.03 | 0.03 | 77 | 998.2 |
| 20260905045003 | 27 | 180 | 4.8 | 9.7 | 0.00 | 0.03 | 0.03 | 77 | 998.2 |
| 20260905044503 | 27 | 137 | 3.2 | 12.9 | 0.00 | 0.03 | 0.03 | 76 | 998.2 |
| 20260905044003 | 27 | 188 | 4.8 | 8.0 | 0.00 | 0.03 | 0.03 | 76 | 998.0 |
| 20260905043004 | 27 | 158 | 4.8 | 9.7 | 0.00 | 0.03 | 0.03 | 75 | 998.0 |
| 20260905042503 | 27 | 184 | 4.8 | 9.7 | 0.00 | 0.03 | 0.03 | 75 | 997.9 |
| 20260905042003 | 27 | 142 | 3.2 | 11.3 | 0.00 | 0.03 | 0.03 | 75 | 998.0 |
| 20260905041503 | 27 | 191 | 3.2 | 9.7 | 0.00 | 0.03 | 0.03 | 74 | 997.9 |
| 20260905041003 | 27 | 168 | 3.2 | 8.0 | 0.00 | 0.03 | 0.03 | 74 | 998.0 |
| 20260905040503 | 27 | 155 | 4.8 | 11.3 | 0.00 | 0.03 | 0.03 | 74 | 998.0 |
| 20260905040003 | 27 | 194 | 4.8 | 9.7 | 0.00 | 0.03 | 0.03 | 74 | 997.9 |
| 20260905035003 | 27 | 158 | 4.8 | 8.0 | 0.00 | 0.03 | 0.03 | 73 | 997.7 |
| 20260905034503 | 27 | 151 | 3.2 | 8.0 | 0.00 | 0.03 | 0.03 | 73 | 997.9 |
| 20260905034003 | 27 | 152 | 3.2 | 11.3 | 0.00 | 0.03 | 0.03 | 73 | 997.9 |
| 20260905032503 | 27 | 133 | 3.2 | 9.7 | 0.00 | 0.03 | 0.03 | 74 | 997.9 |
| 20260905031503 | 28 | 172 | 3.2 | 8.0 | 0.00 | 0.03 | 0.03 | 74 | 997.8 |
| 20260905030503 | 28 | 142 | 1.6 | 4.8 | 0.00 | 0.03 | 0.03 | 74 | 997.5 |
| 20260905030003 | 28 | 164 | 4.8 | 8.0 | 0.00 | 0.03 | 0.03 | 74 | 997.6 |
| 20260905025503 | 28 | 192 | 4.8 | 8.0 | 0.00 | 0.03 | 0.03 | 74 | 997.7 |
| 20260905024503 | 28 | 150 | 4.8 | 8.0 | 0.00 | 0.03 | 0.03 | 74 | 997.5 |
| 20260905024003 | 28 | 141 | 3.2 | 4.8 | 0.00 | 0.03 | 0.03 | 73 | 997.5 |
| 20260905023503 | 28 | 160 | 3.2 | 9.7 | 0.00 | 0.03 | 0.03 | 73 | 997.4 |
| 20260905023004 | 28 | 179 | 4.8 | 8.0 | 0.00 | 0.03 | 0.03 | 73 | 997.4 |
| 20260905022503 | 28 | 168 | 3.2 | 8.0 | 0.00 | 0.03 | 0.03 | 73 | 997.3 |
| 20260905022003 | 28 | 171 | 4.8 | 8.0 | 0.00 | 0.03 | 0.03 | 73 | 997.2 |
| 20260905021503 | 28 | 132 | 3.2 | 8.0 | 0.00 | 0.03 | 0.03 | 73 | 997.2 |
| 20260905021002 | 28 | 174 | 3.2 | 8.0 | 0.00 | 0.03 | 0.03 | 74 | 997.3 |
| 20260905020502 | 28 | 140 | 3.2 | 8.0 | 0.00 | 0.03 | 0.03 | 75 | 997.2 |
| 20260905015503 | 28 | 163 | 4.8 | 9.7 | 0.00 | 0.03 | 0.03 | 75 | 997.1 |
| 20260905015003 | 28 | 153 | 3.2 | 8.0 | 0.00 | 0.03 | 0.03 | 74 | 997.1 |
| 20260905014503 | 28 | 142 | 3.2 | 9.7 | 0.00 | 0.03 | 0.03 | 74 | 997.0 |
| 20260905014003 | 28 | 140 | 3.2 | 9.7 | 0.00 | 0.03 | 0.03 | 74 | 996.8 |
| 20260905013503 | 28 | 139 | 1.6 | 9.7 | 0.00 | 0.03 | 0.03 | 74 | 996.8 |
| 20260905013003 | 28 | 139 | 3.2 | 8.0 | 0.00 | 0.03 | 0.03 | 73 | 996.8 |
| 20260905012503 | 28 | 182 | 4.8 | 8.0 | 0.00 | 0.03 | 0.03 | 73 | 996.7 |
| 20260905011502 | 29 | 147 | 3.2 | 11.3 | 0.00 | 0.03 | 0.03 | 72 | 996.8 |
| 20260905011003 | 29 | 158 | 3.2 | 9.7 | 0.00 | 0.03 | 0.03 | 71 | 996.5 |
| 20260905010503 | 29 | 149 | 3.2 | 9.7 | 0.00 | 0.03 | 0.03 | 71 | 996.6 |
| 20260905010003 | 29 | 145 | 3.2 | 11.3 | 0.00 | 0.03 | 0.03 | 70 | 996.6 |
| 20260905005003 | 30 | 119 | 3.2 | 8.0 | 0.00 | 0.03 | 0.03 | 69 | 996.7 |
| 20260905004502 | 30 | 116 | 1.6 | 11.3 | 0.00 | 0.03 | 0.03 | 69 | 996.6 |
| 20260905003003 | 30 | 180 | 8.0 | 14.5 | 0.00 | 0.03 | 0.03 | 68 | 996.4 |
| 20260905002503 | 30 | 167 | 4.8 | 14.5 | 0.00 | 0.03 | 0.03 | 67 | 996.3 |
| 20260905002003 | 30 | 104 | 3.2 | 12.9 | 0.00 | 0.03 | 0.03 | 66 | 996.3 |
| 20260905001503 | 30 | 153 | 8.0 | 16.1 | 0.00 | 0.03 | 0.03 | 65 | 996.2 |
| 20260905001003 | 31 | 202 | 9.7 | 16.1 | 0.00 | 0.03 | 0.03 | 63 | 996.1 |
| 20260905000503 | 31 | 191 | 4.8 | 16.1 | 0.00 | 0.03 | 0.03 | 63 | 996.1 |
| 20260905000002 | 31 | 193 | 8.0 | 16.1 | 0.00 | 0.03 | 0.03 | 62 | 996.2 |
| 20260904235502 | 31 | 119 | 3.2 | 9.7 | 0.00 | 0.03 | 0.03 | 62 | 996.0 |